Showing default

SPHEREX, 63182

Orbit data source: Space-Track

SPHEREX, 63182 is an American payload satellite in SSO that was launched on Wed, 12 Mar 2025 UTC via an FALCON 9 launch vehicle from the Air Force Western Test Range (AFWTR). Payload-class satellites include a variety of spacecraft equipped with specific instruments for various scientific and technological missions. These include communications satellites like Starlink; space stations such as the ISS; scientific satellites like the Hubble; Earth observation satellites from companies like Planet Labs, Umbra, and HawkEye 360; GPS; miniature CubeSats for education and research; and military/defense satellites.

Loading next visibility...
Identifier
63182, 2025-047E
Orbit
SSO
Country
Flag of USUS
Related business
Manufacturer
SWRI
Mission
Operational Civil Astronomy
Bus & Motor
PUNCH, Unknown motor
Mass
64 kg wet, 64 kg dry
Launch date (UTC)
2025-03-12 (6 months ago)
Launch vehicle
FALCON 9
Launch site
Air Force Western Test Range (AFWTR)
Object type
Payload
Rocket body
Debris
Shape & HBR
Box + 1 Pan, 0.5 m
Radar Cross Section
0.625 m², Large (>1 m²)

Expand to show TLE details & history
Last TLE update: 18 hours ago

TLE from 18 hours ago
0 SPHEREX
1 63182U 25047E   25257.51813657  .00000960  00000-0  15648-3 0  9997
2 63182  97.9572  82.6123 0010653   4.4330 355.6971 14.73150667 27445
Epoch: 2025-09-14T12:26Z
TLE epoch observation values (Epoch: 2025-09-14T12:26:06.999Z)
Latitude
0.00002°
Longitude
-97.65286°
Altitude
646.57 km
Speed
7.539 km/s
True Right ascension
05h 30m 26s
True Declination
0° 00' 00"
Sunlit
Object was in daylight at epoch
Visualization orbit readout
Latitude
Unknown
Longitude
Unknown
Altitude
Unknown
Speed
Unknown
Apparent Right ascension
Unknown
Apparent Declination
Unknown
Sunlit
N/A
Visualization observer readout
Local Sidereal Time
23:28:20
Azimuth
Unknown
Elevation
Unknown
Doppler factor
Unknown
Orbital elements
Apogee altitude
655.565 km
Perigee altitude
640.595 km
Semi-major axis
7,026.217 km
Eccentricity
0.00107
Inclination
97.9572°
RAAN
82.6123°
Arg. of periapsis
4.433°
True anomaly
355.68793°
Mean anomaly
355.6971°
Eccentric anomaly
355.69252°
Mean motion
3.6852 °/min
Orbital period
97.69 mins
BSTAR
0.00015648
Loading maneuver chart data...
Computing Atmospheric mass density...
Loading historical data...
Loading historical data...
Loading historical data...
Loading historical data...
Loading historical data...
Loading historical data...
Loading historical data...
Other satellites on launch #47 in the year 2025 (2025-03-12 UTC)

Documentation

Showing up to 5 results
|